Location: Petruro
(41.0333°N, 14.7833°E)
Time: 11:23:28
(UTC+00:00)

BREEZE-M R/B - Pass Details

Date: 20 June 2021
Orbit: 579 x 26589 km, 48.9° (Epoch: 27 July)

Event Time Altitude Azimuth Distance (km) Brightness Sun altitude
Exits shadow 01:11:26 33° 260° (W) 986 3.2 -18.9°
Maximum altitude 01:12:52 69° 334° (NNW) 665 2.7 -18.8°
Drops below altitude 10° 01:17:58 10° 59° (ENE) 2,870 6.9 -18.3°
Sets 01:22:07 0° 62° (ENE) 4,936 8.2 -17.8°
